Temperature
6 5 5 5 5 5 5 5 5 4 4 5 5 5 5 5 5 5 5 5 5 5 6 6 5 5 5 5 5 5 5 5 6 6 6 5 5 5
5 5 5 5 5 5 5 5 5 5 4 4 5 5 5 5 5 5 5 5 5 5 5 5 5 5 5 5 5 5 5 5 5 5 5 5 5 5
5 5 5 5 5 5 4 5 5 4 4 4 4 4 4 4 4 4 4 4 4 4 5 5 5 5 4 4 4 5 5 4 4 4 4 4 4 4
5 5 5 5 5 4 4 4 4 4 4 4 4 4 4 4 4 4 4 4 4 4 4 4 4 4 4 4 4 4 4 4 4 4 4 4 4 4
5 5 5 4 4 4 4 4 4 4 4 4 4 4 4 4 4 4 4 4 3 3 4 3 3 3 3 3 3 3 3 3 3 3 3 3 3 3
4 4 4 4 4 4 4 4 4 4 3 3 3 3 4 3 3 3 3 3 3 3 3 3 3 3 3 3 3 3 3 3 3 3 3 3 3 3
4 4 4 4 4 4 3 3 3 3 3 3 3 3 3 3 3 3 3 3 3 2 3 3 2 2 2 2 2 2 2 2 2 2 2 2 2 2
4 4 4 4 3 3 3 3 3 3 3 3 3 3 3 2 2 2 2 2 2 2 2 2 2 2 2 2 2 2 2 2 2 2 2 2 2 2
4 4 3 3 3 3 3 3 3 3 3 3 2 2 2 2 2 2 2 1 1 1 1 1 1 1 1 1 1 1 1 1 1 1 1 2 2 2
3 3 3 3 3 3 3 3 3 2 2 2 2 2 2 2 2 1 1 1 1 1 1 1 1 1 1 1 0 0 0 1 1 1 1 1 1 1
3 3 3 3 3 2 3 3 2 2 2 2 2 2 2 1 1 1 1 1 0 0 0 -0 0 0 1 0 -0 -0 -0 0 0 0 0 1 1 1
3 2 2 2 2 2 2 2 2 2 2 2 2 2 1 1 1 1 0 0 -0 -0 -0 -1 -1 -1 -1 -0 -0 -0 -0 -0 -0 -0 -0 0 0 0
2 2 2 2 2 2 2 2 2 2 2 2 1 1 1 1 0 0 -0 -0 -1 -1 -1 -1 -1 -1 -2 -2 -1 -1 -1 -1 -0 -0 -0 -0 -0 -0
2 2 2 1 1 1 1 1 1 1 1 1 1 1 0 0 -0 -0 -1 -1 -1 -1 -1 -2 -2 -2 -2 -2 -2 -1 -1 -1 -1 -1 -1 -0 -0 -0
1 1 1 1 1 1 1 1 1 1 1 1 0 0 -0 -0 -1 -1 -1 -1 -1 -1 -2 -2 -2 -2 -2 -2 -2 -2 -2 -1 -1 -1 -1 -1 -1 -1
1 1 1 1 1 1 1 1 1 0 0 -0 -0 -1 -1 -1 -1 -1 -1 -1 -2 -2 -2 -2 -2 -2 -2 -2 -2 -2 -2 -2 -2 -1 -1 -1 -1 -1
1 1 1 1 1 0 0 0 0 -0 -0 -1 -1 -1 -1 -1 -1 -2 -2 -2 -2 -2 -2 -2 -2 -2 -2 -2 -2 -3 -3 -2 -2 -2 -2 -2 -1 -2
0 0 0 -0 -0 -0 -0 -0 -1 -1 -1 -1 -1 -2 -2 -2 -2 -2 -2 -2 -2 -2 -2 -2 -2 -2 -2 -2 -3 -3 -3 -3 -3 -2 -2 -2 -2 -2
-0 -0 -0 -0 -1 -1 -1 -1 -1 -1 -1 -2 -2 -2 -2 -2 -2 -2 -2 -2 -2 -3 -3 -3 -3 -3 -3 -3 -3 -3 -3 -3 -3 -2 -2 -2 -2 -2
-0 -1 -1 -1 -1 -1 -1 -1 -1 -2 -2 -2 -2 -2 -3 -3 -2 -2 -3 -3 -3 -3 -3 -3 -3 -3 -4 -4 -4 -3 -3 -3 -3 -3 -2 -2 -2 -2
-1 -1 -1 -1 -1 -2 -2 -2 -2 -2 -2 -2 -3 -3 -3 -3 -3 -3 -3 -3 -3 -3 -3 -3 -3 -4 -4 -4 -4 -4 -3 -3 -3 -3 -3 -2 -2 -2
-1 -1 -2 -2 -2 -2 -2 -2 -2 -2 -3 -3 -3 -3 -3 -3 -3 -3 -3 -3 -3 -3 -3 -3 -4 -4 -4 -4 -4 -4 -3 -3 -3 -3 -3 -3 -3 -3
-2 -2 -2 -2 -2 -2 -2 -3 -3 -3 -3 -3 -3 -3 -3 -3 -3 -3 -3 -3 -4 -4 -4 -4 -4 -4 -4 -4 -4 -4 -4 -3 -3 -2 -2 -2 -2 -2
Wind_Speed
4 3 3 2 2 2 3 3 3 5 5 4 3 3 3 3 5 5 5 7 9 10 11 11 11 12 13 14 14 15 14 15 14 13 11 11 13 13
3 3 2 2 2 2 2 2 2 3 5 4 3 4 4 4 6 5 5 9 10 11 11 10 10 11 12 13 13 13 13 13 13 11 11 11 11 11
3 3 3 2 2 2 1 1 2 2 4 5 3 3 4 4 4 5 6 6 7 10 10 10 10 11 12 13 12 12 12 12 12 11 10 9 10 10
3 2 2 2 1 1 1 1 2 2 3 4 4 3 4 4 4 5 5 7 6 10 10 10 10 10 10 10 9 10 11 11 10 9 8 9 10 10
2 2 2 1 1 1 1 1 1 2 2 2 4 4 3 3 4 5 6 5 7 9 10 11 10 10 9 9 9 10 10 11 9 8 9 9 9 10
1 1 1 2 2 1 1 1 1 1 1 1 3 4 3 3 3 4 5 5 6 7 9 10 11 10 11 11 11 11 11 10 9 9 9 9 9 10
1 0 0 1 1 1 1 1 0 1 1 1 2 3 3 3 3 3 5 5 5 5 5 6 6 5 7 10 10 11 10 9 9 10 9 9 9 10
1 1 1 1 1 2 2 2 1 1 1 2 2 2 3 3 3 4 4 5 5 4 5 6 5 5 5 6 9 11 10 10 10 10 10 9 8 8
1 1 1 1 2 2 3 4 4 4 3 1 1 2 3 3 3 3 4 4 5 5 5 5 5 5 6 8 12 11 11 11 10 10 10 8 8 8
1 1 2 1 1 2 3 3 4 4 4 2 1 2 2 3 2 2 3 4 4 4 4 4 5 5 6 6 10 11 12 12 11 11 10 9 8 8
2 3 2 2 3 3 3 3 3 4 5 6 5 5 6 7 6 3 3 3 4 4 4 3 4 5 5 4 7 12 12 13 13 12 11 10 8 8
3 3 4 4 3 4 3 2 2 2 3 4 5 5 5 6 8 4 2 3 3 3 4 4 4 4 4 3 4 7 9 11 13 12 12 11 10 6
3 2 3 5 5 6 4 2 2 2 2 3 3 3 4 4 4 4 3 2 2 3 4 4 4 3 3 4 4 4 6 6 7 8 11 12 11 7
2 2 3 5 6 6 5 4 4 4 2 3 3 3 3 4 4 4 4 3 2 3 5 3 3 3 4 4 5 5 5 5 5 5 6 11 10 10
3 4 5 5 6 5 5 5 4 3 2 3 2 2 2 3 3 3 3 3 4 4 5 4 2 2 2 3 4 5 5 4 4 5 5 5 5 5
3 4 5 6 5 5 4 4 3 2 2 1 1 2 2 3 3 3 3 3 3 4 5 5 4 2 2 3 3 4 4 3 5 6 5 4 4 4
3 2 3 3 4 3 3 3 2 2 2 2 2 2 2 3 3 3 3 3 3 3 5 4 4 3 1 2 3 3 4 4 4 6 5 5 4 4
4 3 3 2 2 2 2 2 2 2 2 2 2 2 2 2 3 3 3 3 3 3 4 4 4 4 3 3 2 3 3 4 5 5 4 4 4 4
4 2 2 1 2 2 2 1 2 2 2 2 2 2 2 2 2 3 3 3 3 3 3 3 4 3 4 5 4 3 3 5 5 5 4 3 4 5
3 2 1 1 1 1 1 1 1 2 2 2 1 1 1 2 2 2 2 3 3 3 3 3 3 2 2 3 3 4 6 4 4 5 5 4 3 5
2 2 1 1 1 1 1 1 1 1 1 1 1 1 1 1 2 2 2 3 3 3 3 3 4 4 2 2 2 4 4 6 5 4 4 4 4 4
2 2 2 2 1 1 1 1 1 1 1 1 1 1 1 1 2 2 2 2 2 2 2 3 4 3 2 2 3 4 5 6 7 7 5 3 2 2
2 2 2 2 2 2 2 1 1 1 1 1 1 1 1 1 2 2 2 2 2 2 2 3 3 3 2 2 3 4 5 6 5 6 5 8 6 5
Wind_Direction
234 232 241 254 251 254 245 241 250 282 292 299 315 318 326 331 321 319 307 302 305 301 297 291 289 292 295 297 296 289 288 289 289 284 279 277 276 276
226 225 243 259 257 256 253 256 246 255 276 289 303 308 314 320 318 321 314 310 305 303 300 299 298 296 296 296 296 290 287 289 289 285 281 281 283 285
234 229 245 259 258 259 264 266 262 250 267 290 302 317 318 317 322 325 320 315 311 313 312 305 302 304 302 294 293 296 290 288 286 282 281 285 288 291
234 225 240 250 261 261 252 271 271 264 258 282 301 313 316 317 328 328 333 332 330 323 324 319 315 316 312 309 309 311 308 298 294 290 292 293 295 297
230 214 224 218 251 253 269 284 300 310 292 276 300 315 323 337 344 340 342 343 338 338 342 336 333 331 330 330 329 324 321 314 302 296 297 297 298 297
223 202 215 214 220 214 255 280 318 338 337 321 311 315 324 336 348 340 334 337 334 341 341 335 336 337 339 335 332 327 323 319 312 308 304 301 297 296
71 79 303 288 272 281 259 243 290 305 315 304 306 318 324 338 332 326 326 327 330 344 338 338 339 340 337 332 332 330 326 323 321 317 310 303 299 297
67 62 37 62 40 0 344 334 303 284 278 291 303 314 319 323 328 331 329 329 326 342 341 332 345 340 339 335 333 335 334 331 327 323 318 311 305 302
104 88 50 41 28 53 26 22 16 3 340 304 296 307 311 321 322 328 330 325 311 317 329 324 336 334 332 341 351 354 349 343 340 336 332 327 319 310
75 84 86 69 49 60 57 40 28 17 11 18 33 4 0 355 344 320 314 324 321 335 343 324 328 329 333 339 350 356 356 354 350 347 343 339 333 327
54 58 69 80 52 49 61 52 33 23 31 41 39 37 24 14 5 1 351 345 332 332 349 336 322 323 327 335 345 352 355 357 357 357 354 349 350 348
49 52 48 52 46 37 53 67 46 9 22 26 29 28 26 18 12 10 348 333 320 320 340 344 327 335 331 335 349 349 350 352 354 358 360 358 354 357
56 44 43 44 37 35 35 48 54 20 24 33 34 27 21 16 13 20 16 353 324 308 327 341 326 333 322 318 331 342 348 346 346 352 1 4 3 6
67 52 51 44 38 37 38 47 41 28 39 45 38 20 10 5 0 9 13 11 348 312 314 320 311 319 319 318 318 329 338 341 346 348 351 355 1 7
68 61 53 44 36 39 43 40 33 40 46 44 29 9 1 352 353 354 354 355 352 344 336 328 310 313 312 304 309 319 328 337 347 350 349 349 347 350
59 54 46 43 41 38 33 35 40 52 54 46 18 3 358 1 2 355 347 342 356 354 351 347 343 332 324 314 310 320 330 324 334 340 338 341 341 348
65 54 43 38 36 32 31 32 33 36 31 25 25 17 8 5 2 359 357 356 1 352 353 352 350 348 338 321 322 326 326 326 326 331 336 344 341 341
73 72 50 38 37 33 27 18 19 24 20 25 32 24 9 359 355 359 3 8 3 357 349 340 344 350 355 7 341 319 332 326 328 331 330 338 335 334
65 64 49 32 24 21 16 12 4 2 13 27 27 16 8 357 354 356 359 2 356 353 350 349 357 3 5 352 339 343 323 323 332 336 334 330 320 319
47 46 30 14 11 7 1 359 3 11 18 16 14 5 357 354 355 354 357 350 348 352 356 2 360 351 333 314 312 324 331 320 329 333 331 326 314 315
22 12 5 356 352 351 354 356 4 6 360 2 357 337 334 343 342 339 344 345 349 356 356 346 322 321 305 321 332 331 332 337 331 316 320 331 337 346
359 349 345 343 341 333 334 341 350 350 343 333 322 323 326 324 319 322 334 341 340 341 338 329 332 347 2 1 345 333 332 338 347 348 336 310 307 332
333 329 327 326 329 329 328 328 313 309 302 290 297 306 316 324 320 321 328 329 331 335 344 348 353 3 360 346 340 336 339 341 347 357 356 356 348 319
Height
1446 1446 1446 1446 1446 1446 1446 1446 1445 1441 1438 1438 1438 1437 1436 1435 1434 1433 1431 1430 1428 1426 1423 1421 1421 1420 1419 1418 1417 1416 1416 1415 1414 1413 1412 1412 1412 1412
1443 1442 1442 1442 1443 1443 1442 1442 1442 1440 1437 1435 1435 1434 1433 1432 1431 1429 1427 1425 1423 1420 1418 1416 1416 1415 1414 1413 1411 1410 1410 1409 1408 1407 1407 1407 1407 1407
1439 1439 1439 1439 1439 1439 1439 1439 1438 1437 1435 1432 1433 1432 1430 1428 1427 1425 1423 1421 1418 1416 1414 1413 1412 1410 1409 1408 1406 1405 1404 1403 1403 1402 1402 1401 1401 1401
1436 1436 1436 1436 1435 1435 1435 1435 1435 1434 1433 1430 1429 1428 1427 1426 1424 1422 1420 1418 1415 1413 1412 1410 1408 1406 1404 1403 1402 1400 1399 1398 1397 1397 1396 1396 1396 1396
1433 1433 1433 1433 1432 1433 1432 1432 1432 1431 1431 1428 1426 1425 1424 1423 1421 1419 1418 1415 1413 1411 1409 1407 1405 1403 1400 1399 1397 1395 1394 1393 1393 1392 1391 1391 1391 1390
1431 1431 1431 1431 1430 1430 1430 1430 1430 1429 1428 1427 1425 1423 1422 1421 1420 1418 1415 1413 1411 1409 1407 1404 1402 1400 1398 1396 1393 1391 1390 1389 1388 1387 1387 1386 1386 1385
1429 1429 1429 1428 1428 1429 1429 1428 1428 1427 1426 1425 1423 1421 1420 1419 1418 1416 1414 1411 1409 1407 1404 1402 1400 1397 1395 1393 1390 1388 1387 1385 1384 1383 1382 1382 1381 1380
1427 1427 1427 1427 1427 1427 1427 1427 1427 1426 1424 1423 1422 1420 1419 1418 1417 1415 1413 1410 1407 1406 1403 1400 1399 1396 1393 1390 1387 1385 1383 1382 1380 1379 1378 1377 1377 1376
1425 1425 1425 1425 1425 1425 1425 1425 1424 1424 1424 1423 1421 1419 1418 1417 1416 1414 1412 1410 1407 1405 1402 1398 1397 1394 1392 1389 1386 1383 1381 1379 1377 1375 1374 1373 1373 1373
1425 1424 1424 1424 1424 1424 1423 1423 1423 1422 1422 1421 1420 1419 1418 1416 1415 1414 1411 1408 1406 1404 1402 1398 1395 1393 1390 1388 1385 1383 1380 1377 1375 1373 1372 1371 1371 1370
1424 1424 1423 1423 1423 1423 1423 1422 1421 1421 1420 1420 1419 1418 1416 1415 1414 1412 1410 1408 1405 1403 1402 1399 1395 1392 1389 1387 1385 1383 1380 1377 1375 1373 1371 1370 1369 1368
1423 1423 1423 1423 1423 1423 1422 1421 1420 1419 1419 1418 1417 1416 1415 1414 1413 1412 1410 1407 1405 1402 1401 1399 1395 1392 1389 1387 1385 1382 1379 1377 1375 1373 1371 1370 1368 1366
1422 1422 1422 1422 1422 1422 1422 1421 1420 1419 1418 1417 1416 1415 1414 1413 1412 1410 1409 1407 1405 1402 1401 1399 1396 1393 1390 1387 1384 1383 1380 1378 1375 1373 1372 1370 1368 1366
1422 1422 1422 1422 1422 1421 1421 1420 1420 1419 1418 1416 1415 1414 1413 1412 1411 1410 1408 1406 1404 1403 1400 1398 1396 1393 1390 1387 1384 1382 1381 1379 1376 1374 1371 1370 1368 1366
1422 1422 1422 1422 1421 1421 1421 1420 1419 1418 1417 1416 1414 1414 1413 1412 1410 1409 1407 1406 1404 1402 1400 1398 1396 1393 1391 1388 1385 1383 1380 1378 1377 1374 1372 1369 1367 1365
1421 1422 1422 1421 1421 1421 1420 1419 1418 1418 1417 1415 1414 1413 1412 1411 1410 1408 1406 1405 1403 1401 1399 1397 1395 1393 1390 1388 1386 1384 1382 1380 1377 1375 1372 1370 1368 1366
1421 1421 1421 1420 1420 1420 1419 1418 1418 1417 1416 1415 1414 1413 1412 1411 1409 1408 1406 1404 1402 1400 1398 1397 1395 1393 1391 1389 1386 1384 1382 1380 1378 1375 1372 1369 1368 1367
1421 1420 1420 1420 1420 1419 1418 1418 1417 1417 1416 1415 1414 1413 1412 1410 1409 1407 1406 1404 1402 1400 1398 1397 1395 1393 1391 1389 1388 1385 1383 1381 1378 1376 1373 1370 1368 1367
1420 1420 1420 1420 1419 1419 1418 1417 1417 1416 1415 1414 1413 1412 1411 1410 1409 1407 1405 1404 1402 1401 1399 1398 1396 1394 1391 1389 1388 1387 1384 1381 1378 1376 1374 1371 1369 1367
1420 1420 1419 1419 1419 1418 1418 1417 1416 1416 1415 1414 1413 1412 1411 1409 1408 1407 1405 1404 1402 1401 1400 1398 1397 1395 1393 1391 1388 1386 1385 1382 1379 1376 1374 1372 1370 1369
1419 1419 1419 1418 1418 1417 1417 1416 1415 1415 1414 1413 1412 1411 1410 1409 1408 1407 1405 1404 1403 1401 1400 1399 1398 1397 1394 1392 1389 1386 1385 1383 1380 1378 1375 1372 1370 1368
1418 1418 1418 1417 1417 1416 1415 1415 1414 1413 1412 1412 1411 1410 1409 1408 1407 1406 1405 1404 1403 1401 1400 1399 1398 1396 1395 1392 1389 1387 1385 1383 1381 1379 1377 1375 1372 1369
1417 1416 1416 1415 1415 1414 1414 1413 1412 1412 1411 1410 1409 1409 1408 1407 1406 1405 1404 1403 1402 1401 1400 1399 1398 1396 1395 1393 1391 1388 1386 1383 1381 1379 1378 1377 1375 1373